[[{"header":{"parameterUnit":"m.s-1","parameterCategory":1,"la1":30.2991,"la2":30.254,"lo1":-89.0895,"lo2":-89.0444,"dy":0.0017,"dx":0.0017,"nx":28,"ny":28,"refTime":"2024-02-08T03:00:00:Z","depth":0,"parameterNumber":2,"parameterNumberName":"U-component_of_WINDS"},"data":[0,0,0,0,0,0,0,0,0,0,0,0,0,0,0,0,0,0,0,0,0,0,0,0,0,0,0,0,0,0,0,0,0,0,0,0,0,0,0,0,0,0,0,0,0,0,0,0,0,0,0,0,0,0,0,0,0,0,-4.5633,-4.5633,0,-4.5621,-4.5621,-4.5621,-4.5563,-4.5561,-4.556,-4.5559,-4.5548,-4.5549,-4.555,0,0,0,0,0,0,0,0,0,0,0,0,0,-4.5607,-4.5608,-4.5633,-4.5633,-4.5633,-4.5621,-4.5621,-4.5621,-4.5563,-4.5561,-4.556,-4.5558,-4.5547,-4.5548,-4.555,0,0,0,0,0,0,0,0,0,0,0,0,0,-4.5609,-4.5608,-4.5633,-4.5602,-4.56,-4.5621,-4.5621,-4.5621,-4.5563,-4.5561,-4.5559,-4.5557,-4.5547,-4.5548,-4.555,-4.56,0,0,-4.5554,-4.5555,0,0,0,0,0,0,0,0,-4.5609,-4.561,-4.5607,-4.5605,-4.5601,-4.5591,-4.5608,-4.5614,-4.5564,-4.5577,-4.5559,-4.5556,-4.5564,-4.5564,-4.5566,-4.56,-4.5599,-4.5554,-4.5555,-4.5556,-4.5556,0,0,0,0,0,0,0,-4.5609,-4.561,-4.5628,-4.5607,-4.5604,-4.559,-4.5588,-4.5609,-4.5582,-4.5576,-4.5572,-4.5571,-4.5562,-4.5565,-4.5566,-4.5599,-4.5554,-4.5556,-4.5557,-4.5557,-4.5674,-4.5676,0,0,0,0,0,0,-4.5613,-4.5611,-4.5629,-4.5628,-4.56,-4.5592,-4.559,-4.5597,-4.5582,-4.5578,-4.5573,-4.5568,-4.5563,-4.5564,-4.5565,-4.5623,-4.5556,-4.5557,-4.5558,-4.5672,-4.5675,-4.5677,0,0,0,0,0,0,-4.5613,-4.5615,-4.5629,-4.5618,-4.5619,-4.5595,-4.5603,-4.5598,-4.56,-4.558,-4.5575,-4.558,-4.5562,-4.5563,-4.5592,-4.5621,-4.5558,-4.5559,-4.567,-4.5673,-4.5676,-4.5739,0,0,0,0,0,0,-4.5612,-4.5615,-4.5634,-4.5619,-4.562,-4.5656,-4.5605,-4.5599,-4.5603,-4.5597,-4.5585,-4.5582,-4.556,-4.559,-4.5594,-4.5622,-4.5561,-4.5667,-4.5671,-4.5675,-4.5734,-4.5744,-4.5753,0,0,0,0,0,-4.5611,-4.5652,-4.5635,-4.5637,-4.5642,-4.5658,-4.5658,-4.5632,-4.5606,-4.5624,-4.5611,-4.5582,-4.5618,-4.5594,-4.5597,-4.5627,-4.5665,-4.567,-4.5675,-4.573,-4.5742,-4.5752,0,0,0,0,0,0,-4.5671,-4.5649,-4.563,-4.5667,-4.5665,-4.5648,-4.567,-4.5646,-4.5651,-4.5646,-4.5614,-4.5612,-4.5646,-4.564,-4.5612,-4.5675,-4.5637,-4.5643,-4.5678,-4.5689,-4.5698,-4.5698,-4.5562,0,0,0,0,0,-4.5688,-4.5702,-4.5683,-4.5718,-4.5718,-4.5695,-4.57,-4.5681,-4.5677,-4.5676,-4.5665,-4.5663,-4.5674,-4.5681,-4.569,-4.5734,-4.573,-4.5756,-4.5765,-4.5773,-4.5778,-4.58,-4.5811,-4.5694,-4.5694,-4.5693,0,0,-4.5724,-4.5714,-4.5725,-4.5729,-4.5725,-4.5741,-4.5694,-4.5712,-4.5724,-4.5679,-4.5705,-4.5698,-4.5693,-4.573,-4.5745,-4.5725,-4.581,-4.578,-4.5786,-4.5786,-4.5807,-4.5818,-4.5828,-4.5697,-4.5696,-4.5696,0,0,-4.5797,-4.5791,-4.5819,-4.5816,-4.5811,-4.5795,-4.5803,-4.579,-4.5783,-4.5809,-4.5776,-4.579,-4.5809,-4.5807,-4.5809,-4.5884,-4.5857,-4.5888,-4.5935,-4.5957,-4.5967,-4.5975,-4.6,-4.601,-4.5893,-4.5893,-4.5894,0,-4.5842,-4.5863,-4.5837,-4.5857,-4.586,-4.5821,-4.585,-4.5848,-4.5846,-4.585,-4.5828,-4.5852,-4.5846,-4.5882,-4.59,-4.5903,-4.591,-4.5888,-4.5968,-4.5975,-4.5982,-4.6007,-4.6016,-4.5897,-4.5897,-4.5896,-4.5896,0,-4.5919,-4.5935,-4.5959,-4.5957,-4.5963,-4.5988,-4.5965,-4.5975,-4.5956,-4.5943,-4.5971,-4.5964,-4.597,-4.5978,-4.5959,-4.6011,-4.5999,-4.5973,-4.5933,-4.5998,-4.602,-4.6029,-4.5902,-4.5901,-4.59,-4.5899,0,0,-4.6026,-4.6011,-4.602,-4.6019,-4.6011,-4.6023,-4.6047,-4.6053,-4.6062,-4.6063,-4.6081,-4.61,-4.6076,-4.6078,-4.606,-4.608,-4.6139,-4.6051,-4.6051,-4.6067,-4.6195,-4.6213,-4.6224,-4.6122,-4.6124,-4.6125,-4.6194,0,-4.6095,-4.6133,-4.611,-4.6152,-4.6167,-4.6131,-4.6151,-4.6149,-4.6139,-4.615,-4.6139,-4.6152,-4.612,-4.6121,-4.6139,-4.6128,-4.6164,-4.6123,-4.6139,-4.6139,-4.6138,-4.6235,-4.6254,-4.632,-4.6203,-4.6205,-4.6206,0,-4.6179,-4.6183,-4.6227,-4.6217,-4.6222,-4.6241,-4.6245,-4.6257,-4.6254,-4.6245,-4.6248,-4.6225,-4.6248,-4.6211,-4.6242,-4.6215,-4.6221,-4.6216,-4.6218,-4.6217,-4.6175,-4.6235,-4.634,-4.6349,-4.6219,-4.6218,-4.6217,0,-4.6251,-4.6268,-4.6296,-4.6297,-4.6286,-4.63,-4.6297,-4.6292,-4.6298,-4.6302,-4.6306,-4.6313,-4.6317,-4.6324,-4.6304,-4.6279,-4.6337,-4.6299,-4.633,-4.6331,-4.6342,-4.6341,-4.6448,-4.6349,-4.6349,-4.6349,-4.6349,0,-4.6329,-4.6357,-4.6329,-4.6346,-4.6376,-4.6351,-4.6381,-4.6374,-4.6371,-4.6386,-4.6357,-4.6372,-4.6345,-4.6358,-4.6343,-4.637,-4.6373,-4.6366,-4.6361,-4.6367,-4.6368,-4.6369,-4.6363,-4.6352,-4.6351,-4.6351,-4.635,0,-4.6414,-4.6396,-4.6424,-4.6412,-4.641,-4.6433,-4.6423,-4.6438,-4.6427,-4.6447,-4.645,-4.6432,-4.6445,-4.6427,-4.6439,-4.6429,-4.6466,-4.6456,-4.6467,-4.6463,-4.6495,-4.6491,-4.6604,-4.6617,-4.6512,-4.6513,-4.6514,0,-4.6463,-4.6484,-4.6474,-4.6482,-4.648,-4.6494,-4.65,-4.6477,-4.6484,-4.6484,-4.6499,-4.6511,-4.6518,-4.6541,-4.6529,-4.6538,-4.6527,-4.6566,-4.6528,-4.6533,-4.6525,-4.6523,-4.6525,-4.6573,-4.6574,-4.6575,-4.6576,0,-4.6553,-4.6544,-4.6553,-4.656,-4.6568,-4.6572,-4.6574,-4.6583,-4.6559,-4.6569,-4.6582,-4.6588,-4.66,-4.6611,-4.6618,-4.6614,-4.6591,-4.6588,-4.6596,-4.6601,-4.6606,-4.6602,-4.6486,-4.6585,-4.6584,-4.6583,-4.6583,-4.6583,-4.662,-4.6637,-4.6633,-4.6645,-4.6644,-4.6647,-4.6661,-4.6652,-4.6662,-4.667,-4.6657,-4.6674,-4.6672,-4.6678,-4.6677,-4.669,-4.6673,-4.6685,-4.6687,-4.669,-4.6694,-4.6606,-4.6692,-4.6691,-4.6691,-4.6691,-4.6691,0,-4.6707,-4.6703,-4.6715,-4.6718,-4.6728,-4.6706,-4.6708,-4.6717,-4.6733,-4.6733,-4.6741,-4.6757,-4.6768,-4.6758,-4.6767,-4.678,-4.6769,-4.6783,-4.678,-4.678,-4.6709,-4.6701,-4.6791,-4.6791,-4.6791,-4.6791,-4.6791,-4.6791,-4.6753,-4.678,-4.677,-4.6797,-4.6793,-4.6809,-4.6812,-4.6815,-4.6814,-4.6833,-4.6842,-4.6836,-4.6832,-4.6841,-4.6851,-4.6847,-4.6851,-4.6868,-4.6861,-4.6795,-4.6785,-4.6775,-4.6767,-4.687,-4.687,-4.6931,-4.6931,-4.6932]},{"header":{"parameterUnit":"m.s-1","parameterCategory":1,"la1":30.2991,"la2":30.254,"lo1":-89.0895,"lo2":-89.0444,"dy":0.0017,"dx":0.0017,"nx":28,"ny":28,"refTime":"2024-02-08T03:00:00:Z","depth":0,"parameterNumber":3,"parameterNumberName":"V-component_of_WINDS"},"data":[0,0,0,0,0,0,0,0,0,0,0,0,0,0,0,0,0,0,0,0,0,0,0,0,0,0,0,0,0,0,0,0,0,0,0,0,0,0,0,0,0,0,0,0,0,0,0,0,0,0,0,0,0,0,0,0,0,0,2.3807,2.3808,0,2.3863,2.3863,2.3864,2.3907,2.3907,2.3908,2.3908,2.3962,2.3963,2.3964,0,0,0,0,0,0,0,0,0,0,0,0,0,2.3738,2.3739,2.3807,2.3808,2.3808,2.3863,2.3863,2.3864,2.3907,2.3907,2.3908,2.3908,2.3962,2.3963,2.3964,0,0,0,0,0,0,0,0,0,0,0,0,0,2.3778,2.3739,2.3807,2.3836,2.384,2.3862,2.3863,2.3864,2.3907,2.3907,2.3908,2.3908,2.3961,2.3963,2.3965,2.3962,0,0,2.3969,2.397,0,0,0,0,0,0,0,0,2.3776,2.378,2.3831,2.3834,2.3838,2.3879,2.3859,2.3897,2.3907,2.3881,2.3908,2.3909,2.3934,2.3938,2.3947,2.3964,2.3967,2.397,2.397,2.3971,2.3972,0,0,0,0,0,0,0,2.3773,2.3778,2.3829,2.3832,2.3836,2.3847,2.3853,2.3866,2.3903,2.3883,2.3887,2.3893,2.3936,2.3945,2.3948,2.3968,2.3969,2.3971,2.3972,2.3972,2.399,2.3989,0,0,0,0,0,0,2.3766,2.3776,2.3827,2.3831,2.3808,2.3847,2.3855,2.3865,2.3903,2.391,2.3892,2.3895,2.3942,2.3946,2.395,2.3952,2.3971,2.3973,2.3974,2.399,2.399,2.3989,0,0,0,0,0,0,2.3764,2.377,2.3825,2.3804,2.3812,2.3848,2.3859,2.3866,2.3875,2.391,2.3916,2.3895,2.3943,2.3948,2.396,2.3955,2.3973,2.3975,2.3991,2.399,2.399,2.3955,0,0,0,0,0,0,2.3762,2.3769,2.3768,2.3804,2.3813,2.3833,2.3859,2.3866,2.3878,2.3882,2.3914,2.392,2.3943,2.3957,2.3961,2.3957,2.3976,2.3992,2.3991,2.399,2.3956,2.3953,2.395,0,0,0,0,0,2.3759,2.3754,2.3768,2.3774,2.3813,2.3833,2.3838,2.3866,2.3877,2.3877,2.39,2.3919,2.3954,2.3958,2.3963,2.3959,2.3992,2.3991,2.399,2.3958,2.3953,2.395,0,0,0,0,0,0,2.3715,2.376,2.3775,2.3782,2.3804,2.384,2.3841,2.386,2.3878,2.3881,2.3913,2.392,2.3929,2.3945,2.3948,2.3961,2.3976,2.3976,2.395,2.3946,2.3943,2.3939,2.3977,0,0,0,0,0,2.3707,2.372,2.3758,2.376,2.3771,2.3804,2.3813,2.3833,2.3857,2.3866,2.389,2.3911,2.3928,2.3938,2.3954,2.3959,2.3968,2.3959,2.3956,2.3953,2.3952,2.3959,2.3956,2.3986,2.3986,2.3986,0,0,2.3688,2.3714,2.372,2.3752,2.3771,2.3785,2.3811,2.3823,2.3834,2.3867,2.3881,2.3899,2.3926,2.3935,2.394,2.3949,2.3947,2.3951,2.3949,2.395,2.3958,2.3955,2.3952,2.3985,2.3985,2.3985,0,0,2.3663,2.3683,2.3689,2.3708,2.3738,2.3761,2.3762,2.3797,2.3811,2.3826,2.3852,2.3865,2.3892,2.3911,2.3923,2.3909,2.3928,2.3913,2.3896,2.3902,2.39,2.3898,2.3895,2.3893,2.3913,2.3913,2.3912,0,2.3636,2.3658,2.3689,2.3701,2.3715,2.3748,2.3756,2.3773,2.3806,2.3815,2.3824,2.3861,2.3881,2.3896,2.3893,2.3902,2.3906,2.391,2.3898,2.3896,2.3895,2.3892,2.3891,2.3911,2.3911,2.3911,2.3911,0,2.3625,2.364,2.3641,2.3675,2.3689,2.3698,2.3731,2.3742,2.3761,2.3783,2.3799,2.3824,2.3849,2.3853,2.3871,2.3872,2.3877,2.3891,2.3908,2.389,2.3888,2.3887,2.3908,2.3909,2.3909,2.391,0,0,2.3571,2.3625,2.3625,2.3642,2.3679,2.3691,2.3703,2.3728,2.3737,2.376,2.3771,2.3795,2.381,2.3824,2.3845,2.385,2.384,2.3864,2.3866,2.386,2.3845,2.3835,2.3833,2.3853,2.3853,2.3853,2.3844,0,2.3553,2.3577,2.3607,2.362,2.3636,2.3669,2.368,2.3704,2.3725,2.3741,2.3765,2.3782,2.3799,2.3809,2.3815,2.384,2.3837,2.3841,2.3864,2.3865,2.3858,2.3832,2.3821,2.3811,2.3843,2.3843,2.3843,0,2.3534,2.3557,2.3573,2.3612,2.362,2.3628,2.3656,2.3671,2.3699,2.3715,2.3733,2.3756,2.3771,2.3785,2.3807,2.3808,2.382,2.3834,2.3834,2.3838,2.3853,2.3837,2.3808,2.3808,2.3842,2.3842,2.3842,0,2.3496,2.3531,2.3546,2.356,2.3604,2.361,2.3629,2.3659,2.3673,2.3696,2.3706,2.373,2.3744,2.3762,2.3792,2.3799,2.3811,2.3827,2.3825,2.3825,2.3826,2.3826,2.3801,2.3832,2.3832,2.3832,2.3832,0,2.3473,2.3482,2.3531,2.354,2.3551,2.3586,2.3597,2.3618,2.3645,2.3659,2.3689,2.3702,2.3739,2.3757,2.378,2.3796,2.3801,2.3814,2.382,2.3812,2.3811,2.3821,2.3823,2.3832,2.3832,2.3832,2.3832,0,2.3433,2.3466,2.3485,2.3527,2.3538,2.3545,2.3581,2.3591,2.3615,2.3634,2.364,2.3677,2.37,2.3731,2.3762,2.3778,2.3791,2.38,2.3782,2.3786,2.3783,2.3783,2.3764,2.3764,2.3793,2.3793,2.3793,0,2.3417,2.3425,2.3469,2.3482,2.35,2.3519,2.3535,2.357,2.3585,2.362,2.3627,2.3652,2.3674,2.3709,2.3739,2.3764,2.3774,2.3766,2.3778,2.3771,2.3776,2.3776,2.3778,2.3763,2.3763,2.3762,2.3762,0,2.3385,2.3402,2.3424,2.3452,2.3471,2.3494,2.3519,2.3528,2.3568,2.3584,2.3608,2.3625,2.3659,2.3684,2.3714,2.3733,2.3755,2.3758,2.3759,2.3751,2.3741,2.3749,2.3776,2.3758,2.3759,2.3759,2.3759,2.3759,2.3358,2.3368,2.3402,2.3426,2.3449,2.3472,2.3485,2.3512,2.3534,2.3565,2.3584,2.3608,2.3639,2.3681,2.37,2.3719,2.3728,2.3729,2.3729,2.3729,2.3728,2.3738,2.3725,2.3725,2.3725,2.3725,2.3725,0,2.333,2.3354,2.3376,2.3411,2.3431,2.3451,2.348,2.3495,2.3516,2.3544,2.3566,2.3595,2.3621,2.3654,2.3681,2.3691,2.3701,2.3697,2.3697,2.3702,2.3718,2.3715,2.3688,2.3688,2.3688,2.3688,2.3688,2.3688,2.3318,2.3337,2.3358,2.3389,2.3413,2.3438,2.3453,2.3475,2.3498,2.353,2.3552,2.3574,2.3604,2.3635,2.3659,2.3668,2.3677,2.367,2.3682,2.3697,2.37,2.3703,2.3701,2.3672,2.3672,2.3665,2.3665,2.3665]}]]